GW0245 Weather Reports


Display with metric or nautical units.
time (UTC)temp
F
wind
direction
speed
MPH
gust
MPH
rain 1hr
in
rain 24hr
in
rain mn
in
humidity
%
barometer
mb
20240530101558 63 232 3.0 7.0 0.00 0.00 0.00 24 1016.2
20240530100053 62 224 2.0 7.0 0.00 0.00 0.00 25 1016.0
20240530094601 61 225 0.0 2.0 0.00 0.00 0.00 26 1016.2
20240530093053 61 229 0.0 4.0 0.00 0.00 0.00 26 1015.9
20240530091603 61 237 1.0 3.0 0.00 0.00 0.00 25 1015.7
20240530090054 62 0 1.0 2.0 0.00 0.00 0.00 25 1015.7
20240530084556 63 256 1.0 2.0 0.00 0.00 0.00 24 1015.7
20240530083052 64 256 0.0 3.0 0.00 0.00 0.00 22 1015.7
20240530081552 67 226 1.0 3.0 0.00 0.00 0.00 20 1015.9
20240530080054 68 276 1.0 7.0 0.00 0.00 0.00 19 1016.0
20240530074556 67 216 2.0 5.0 0.00 0.00 0.00 20 1016.2
20240530073054 67 229 2.0 5.0 0.00 0.00 0.00 19 1016.2
20240530071603 68 227 1.0 4.0 0.00 0.00 0.00 19 1016.3
20240530070102 69 236 2.0 4.0 0.00 0.00 0.00 19 1016.3
20240530064554 69 222 1.0 3.0 0.00 0.00 0.00 18 1016.4
20240530063055 70 200 1.0 5.0 0.00 0.00 0.00 18 1016.3
20240530061554 70 163 1.0 5.0 0.00 0.00 0.00 18 1016.2
20240530060102 71 210 1.0 4.0 0.00 0.00 0.00 17 1016.1
20240530054553 72 200 2.0 4.0 0.00 0.00 0.00 17 1016.0
20240530053056 74 149 1.0 4.0 0.00 0.00 0.00 16 1016.1
20240530051554 78 0 2.0 8.0 0.00 0.00 0.00 14 1016.0
20240530050112 79 238 7.0 14.0 0.00 0.00 0.00 13 1015.9
20240530044553 79 213 6.0 16.0 0.00 0.00 0.00 13 1015.8
20240530043107 79 264 5.0 15.0 0.00 0.00 0.00 13 1015.6
20240530041646 80 269 6.0 18.0 0.00 0.00 0.00 13 1015.5
20240530040056 79 257 5.0 17.0 0.00 0.00 0.00 13 1015.4
20240530034551 79 225 3.0 15.0 0.00 0.00 0.00 13 1015.3
20240530033058 80 244 6.0 15.0 0.00 0.00 0.00 12 1015.1
20240530031557 80 271 10.0 18.0 0.00 0.00 0.00 12 1015.0
20240530030055 80 242 8.0 15.0 0.00 0.00 0.00 12 1015.0
20240530024553 80 265 5.0 11.0 0.00 0.00 0.00 12 1015.0
20240530023057 81 263 4.0 9.0 0.00 0.00 0.00 12 1014.9
20240530021601 82 238 2.0 10.0 0.00 0.00 0.00 11 1014.8
20240530020057 85 255 3.0 6.0 0.00 0.00 0.00 10 1014.7
20240530014556 86 323 3.0 13.0 0.00 0.00 0.00 10 1014.7
20240530013102 87 266 3.0 9.0 0.00 0.00 0.00 10 1014.5
20240530011556 88 226 4.0 8.0 0.00 0.00 0.00 10 1014.5
20240530010056 88 233 5.0 10.0 0.00 0.00 0.00 9 1014.5
20240530004557 89 210 6.0 12.0 0.00 0.00 0.00 9 1014.4
20240530003052 90 275 5.0 13.0 0.00 0.00 0.00 9 1014.3
20240530001552 90 255 5.0 15.0 0.00 0.00 0.00 9 1014.4
20240530000104 91 139 3.0 12.0 0.00 0.00 0.00 8 1014.4
20240529234605 91 194 4.0 13.0 0.00 0.00 0.00 8 1014.5
20240529233054 91 178 3.0 13.0 0.00 0.00 0.00 8 1014.5
20240529231554 92 148 4.0 12.0 0.00 0.00 0.00 8 1014.5
20240529230054 91 203 7.0 16.0 0.00 0.00 0.00 8 1014.5
20240529224604 91 106 4.0 19.0 0.00 0.00 0.00 9 1014.6
20240529223055 91 213 7.0 16.0 0.00 0.00 0.00 9 1014.7
20240529221556 90 192 6.0 18.0 0.00 0.00 0.00 10 1014.7
20240529220057 92 219 6.0 14.0 0.00 0.00 0.00 9 1015.0
20240529214553 92 185 5.0 16.0 0.00 0.00 0.00 9 1015.2
20240529213057 91 101 8.0 20.0 0.00 0.00 0.00 9 1015.3
20240529211557 91 157 8.0 19.0 0.00 0.00 0.00 9 1015.3
20240529210100 90 160 11.0 22.0 0.00 0.00 0.00 9 1015.4
20240529204555 90 129 7.0 18.0 0.00 0.00 0.00 10 1015.5
20240529203056 92 142 7.0 14.0 0.00 0.00 0.00 9 1015.6
20240529201557 91 227 5.0 21.0 0.00 0.00 0.00 9 1015.9
20240529200054 90 115 6.0 12.0 0.00 0.00 0.00 10 1015.7
20240529194554 90 194 11.0 22.0 0.00 0.00 0.00 9 1015.9
20240529193056 88 320 2.0 12.0 0.00 0.00 0.00 10 1016.2
20240529191557 89 35 5.0 9.0 0.00 0.00 0.00 11 1016.3
20240529190057 87 118 3.0 12.0 0.00 0.00 0.00 11 1016.6
20240529184553 86 149 3.0 10.0 0.00 0.00 0.00 12 1017.0
20240529183056 86 34 2.0 8.0 0.00 0.00 0.00 13 1017.5
20240529181554 84 334 1.0 7.0 0.00 0.00 0.00 13 1017.6
20240529180054 84 86 4.0 10.0 0.00 0.00 0.00 14 1017.8
20240529174554 83 22 3.0 10.0 0.00 0.00 0.00 14 1017.9
20240529173054 81 54 2.0 7.0 0.00 0.00 0.00 14 1018.1
20240529171559 81 98 3.0 6.0 0.00 0.00 0.00 14 1018.2
20240529170052 81 33 1.0 7.0 0.00 0.00 0.00 14 1018.4
20240529164559 80 161 2.0 6.0 0.00 0.00 0.00 15 1018.3
20240529163054 79 5 2.0 5.0 0.00 0.00 0.00 15 1018.2
20240529161555 78 98 3.0 6.0 0.00 0.00 0.00 14 1018.2
20240529160105 76 11 2.0 6.0 0.00 0.00 0.00 16 1018.3
20240529154556 75 65 2.0 5.0 0.00 0.00 0.00 18 1018.2
20240529153053 74 36 2.0 5.0 0.00 0.00 0.00 19 1018.4
20240529151555 73 74 2.0 5.0 0.00 0.00 0.00 19 1018.5
20240529150102 72 67 1.0 4.0 0.00 0.00 0.00 20 1018.5
20240529144552 70 59 1.0 4.0 0.00 0.00 0.00 21 1018.4
20240529143052 70 81 2.0 4.0 0.00 0.00 0.00 21 1018.2
20240529141554 70 66 1.0 3.0 0.00 0.00 0.00 22 1018.1
20240529140124 69 71 1.0 3.0 0.00 0.00 0.00 22 1017.9
20240529134551 67 0 0.0 3.0 0.00 0.00 0.00 23 1017.8
20240529133053 66 78 2.0 4.0 0.00 0.00 0.00 24 1017.7
20240529131600 63 0 0.0 2.0 0.00 0.00 0.00 26 1017.6
20240529130101 61 0 0.0 2.0 0.00 0.00 0.00 27 1017.5
20240529124555 58 213 0.0 2.0 0.00 0.00 0.00 28 1017.4
20240529123056 56 261 0.0 3.0 0.00 0.00 0.00 28 1017.2
20240529121556 57 261 0.0 2.0 0.00 0.00 0.00 27 1017.1
20240529120054 57 0 1.0 2.0 0.00 0.00 0.00 28 1016.7
20240529114553 57 255 1.0 3.0 0.00 0.00 0.00 27 1016.7
20240529113053 58 272 1.0 2.0 0.00 0.00 0.00 27 1016.5
20240529111558 58 253 1.0 3.0 0.00 0.00 0.00 26 1016.5
20240529110106 59 0 1.0 4.0 0.00 0.00 0.00 26 1016.5
20240529104630 60 284 1.0 3.0 0.00 0.00 0.00 25 1016.5
20240529103054 61 291 2.0 5.0 0.00 0.00 0.00 25 1016.3